EHI
0 0 0 0 0 0 0 0 0 0 0 0 0 0 0 0 0 0 0 0 0 0 0 0 0 0 0 0 0 0 0 0 0 0 0 0 0 0 0 0 0 0 0
0 0 0 0 0 0 0 0 0 0 0 0 0 0 0 0 0 0 0 0 0 0 0 0 0 0 0 0 0 0 0 0 0 0 0 0 0 0 0 0 0 0 0
0 0 0 0 0 0 0 0 0 0 0 0 0 0 0 0 0 0 0 0 0 0 0 0 0 0 0 0 0 0 0 0 0 0 0 0 0 0 0 0 0 0 0
0 0 0 0 0 0 0 0 0 0 0 0 0 0 0 0 0 0 0 0 0 0 0 0 0 0 0 0 0 0 0 0 0 0 0 0 0 0 0 0 0 0 0
0 0 0 0 0 0 0 0 0 0 0 0 0 0 0 0 0 0 0 0 0 0 0 0 0 0 0 0 0 0 0 0 0 0 0 0 0 0 0 0 0 0 0
0 0 0 0 0 0 0 0 0 0 0 0 0 0 0 0 0 0 0 0 0 0 0 0 0 0 0 0 0 0 0 0 0 0 0 0 0 0 0 0 0 0 0
0 0 0 0 0 0 0 0 0 0 0 0 0 0 0 0 0 0 0 0 0 0 0 0 0 0 0 0 0 0 0 0 0 0 0 0 0 0 0 0 0 0 0
0 0 0 0 0 0 0 0 0 0 0 0 0 0 0 0 0 0 0 0 0 0 0 0 0 0 0 0 0 0 0 0 0 0 0 0 0 0 0 0 0 0 0
0 0 0 0 0 0 0 0 0 0 0 0 0 0 0 0 0 0 0 0 0 0 0 0 0 0 0 0 0 0 0 0 0 0 0 0 0 0 0 0 0 0 0
0 0 0 0 0 0 0 0 0 0 0 0 0 0 0 0 0 0 0 0 0 0 0 0 0 0 0 0 0 0 0 0 0 0 0 0 0 0 0 0 0 0 0
0 0 0 0 0 0 0 0 0 0 0 0 0 0 0 0 0 0 0 0 0 0 0 0 0 0 0 0 0 0 0 0 0 0 0 0 0 0 0 0 0 0 0
0 0 0 0 0 0 0 0 0 0 0 0 0 0 0 0 0 0 0 0 0 0 0 0 0 0 0 0 0 0 0 0 0 0 0 0 0 0 0 0 0 0 0
0 0 0 0 0 0 0 0 0 0 0 0 0 0 0 0 0 0 0 0 0 0 0 0 0 0 0 0 0 0 0 0 0 0 0 0 0 0 0 0 0 0 0
0 0 0 0 0 0 0 0 0 0 0 0 0 0 0 0 0 0 0 0 0 0 0 0 0 0 0 0 0 0 0 0 0 0 0 0 0 0 0 0 0 0 0
0 0 0 0 0 0 0 0 0 0 0 0 0 0 0 0 0 0 0 0 0 0 0 0 0 0 0 0 0 0 0 0 0 0 0 0 0 0 0 0 0 0 0
0 0 0 0 0 0 0 0 0 0 0 0 0 0 0 0 0 0 0 0 0 0 0 0 0 0 0 0 0 0 0 0 0 0 0 0 0 0 0 0 0 0 0
0 0 0 0 0 0 0 0 0 0 0 0 0 0 0 0 0 0 0 0 0 0 0 0 0 0 0 0 0 0 0 0 0 0 0 0 0 0 0 0 0 0 0
0 0 0 0 0 0 0 0 0 0 0 0 0 0 0 0 0 0 0 0 0 0 0 0 0 0 0 0 0 0 0 0 0 0 0 0 0 0 0 0 0 0 0
0 0 0 0 0 0 0 0 0 0 0 0 0 0 0 0 0 0 0 0 0 0 0 0 0 0 0 0 0 0 0 0 0 0 0 0 0 0 0 0 0 0 0
0 0 0 0 0 0 0 0 0 0 0 0 0 0 0 0 0 0 0 0 0 0 0 0 0 0 0 0 0 0 0 0 0 0 0 0 0 0 0 0 0 0 0
0 0 0 0 0 0 0 0 0 0 0 0 0 0 0 0 0 0 0 0 0 0 0 0 0 0 0 0 0 0 0 0 0 0 0 0 0 0 0 0 0 0 0
0 0 0 0 0 0 0 0 0 0 0 0 0 0 0 0 0 0 0 0 0 0 0 0 0 0 0 0 0 0 0 0 0 0 0 0 0 0 0 0 0 0 0
0 0 0 0 0 0 0 0 0 0 0 0 0 0 0 0 0 0 0 0 0 0 0 0 0 0 0 0 0 0 0 0 0 0 0 0 0 0 0 0 0 0 0
0 0 0 0 0 0 0 0 0 0 0 0 0 0 0 0 0 0 0 0 0 0 0 0 0 0 0 0 0 0 0 0 0 0 0 0 0 0 0 0 0 0 0
0 0 0 0 0 0 0 0 0 0 0 0 0 0 0 0 0 0 0 0 0 0 0 0 0 0 0 0 0 0 0 0 0 0 0 0 0 0 0 0 0 0 0
0 0 0 0 0 0 0 0 0 0 0 0 0 0 0 0 0 0 0 0 0 0 0 0 0 0 0 0 0 0 0 0 0 0 0 0 0 0 0 0 0 0 0
Wind_Speed
1 1 1 1 1 1 1 2 2 1 1 2 2 2 2 2 2 3 3 3 3 3 3 3 4 3 3 2 2 2 3 3 4 3 2 2 2 3 3 3 3 2 3
1 1 1 1 1 1 1 2 1 1 2 2 2 2 3 3 3 3 3 3 4 4 4 3 4 3 3 3 2 3 3 3 3 4 3 2 3 2 2 3 3 3 2
1 1 1 1 1 1 2 2 2 2 2 2 2 3 3 3 3 3 4 4 4 4 4 4 4 4 4 3 3 3 3 3 2 3 3 2 2 2 2 2 3 3 3
1 1 1 1 2 2 2 2 2 2 2 3 3 3 3 3 4 4 4 4 4 4 4 4 5 5 5 4 4 4 3 3 2 3 3 3 2 2 1 2 3 2 3
1 1 2 2 1 2 2 2 2 2 3 3 3 3 3 3 3 4 4 4 4 4 4 4 5 6 7 5 4 3 3 3 3 3 3 2 2 2 2 2 3 3 3
1 1 1 1 1 2 2 2 2 2 2 2 3 3 3 3 5 6 5 4 4 4 4 4 5 6 7 8 9 7 5 4 4 3 3 3 3 3 2 2 2 3 3
1 1 1 1 2 2 2 2 2 3 2 2 3 3 3 4 6 7 7 4 4 4 5 4 4 4 5 4 7 7 6 7 6 4 4 5 4 4 3 3 3 4 4
1 2 2 1 2 2 2 2 2 2 2 2 3 3 3 4 7 7 6 4 3 4 5 5 5 5 5 5 4 4 4 4 5 4 4 5 4 4 4 4 4 3 4
2 2 2 2 2 2 2 3 3 2 2 3 3 3 3 4 7 7 6 3 3 4 4 4 4 5 7 7 4 4 3 3 4 5 5 5 6 6 4 2 2 2 3
2 3 2 2 2 3 3 3 2 2 3 3 3 3 4 4 7 7 6 3 3 3 3 4 6 6 7 7 4 3 3 3 2 2 2 3 3 3 5 3 3 3 2
2 2 2 2 2 2 2 2 2 2 2 3 3 3 4 5 6 7 6 3 3 3 3 3 3 6 7 6 4 3 4 3 1 1 1 1 1 1 1 1 2 3 3
2 2 2 2 2 2 2 2 2 2 2 3 3 4 3 4 5 5 6 5 4 3 3 3 3 5 5 5 3 3 3 1 1 1 1 1 1 2 2 2 2 2 3
2 2 2 2 2 2 2 2 2 2 2 2 3 3 3 2 3 5 5 5 5 3 2 4 4 4 3 2 2 2 1 1 1 1 1 2 2 2 1 1 2 1 2
2 2 2 2 2 2 2 2 2 2 2 2 3 3 3 3 2 2 3 3 4 3 2 2 2 1 1 1 1 1 1 1 1 1 1 1 1 1 1 1 2 2 2
2 2 2 2 2 2 2 2 3 3 4 3 3 3 3 3 4 4 3 2 2 2 1 0 0 0 0 0 0 0 0 1 1 1 1 1 1 1 2 1 1 2 2
2 2 2 1 1 2 2 3 3 4 5 6 6 5 4 5 6 5 4 3 3 2 1 1 1 1 1 1 1 1 1 1 1 1 1 1 1 1 2 2 2 2 2
2 2 2 1 2 2 2 2 3 3 4 4 4 5 5 5 4 4 3 3 2 1 1 1 1 1 1 1 1 1 1 1 1 1 1 1 1 1 1 2 2 2 2
2 3 2 2 2 2 2 2 2 2 3 3 4 4 4 4 3 3 2 1 1 1 1 1 2 1 1 1 1 1 1 1 1 1 1 1 1 1 2 2 2 2 2
2 2 2 1 2 2 1 1 1 2 2 2 3 3 4 3 3 2 1 1 1 1 1 1 1 1 1 1 1 1 1 1 1 1 1 1 1 1 2 2 2 3 3
2 3 2 1 1 1 1 1 1 1 2 2 2 2 2 2 1 1 1 0 1 1 1 1 1 1 1 1 1 1 1 1 1 1 1 1 1 1 2 2 2 2 2
2 2 2 1 1 1 1 1 1 1 1 2 2 2 3 1 1 1 1 1 1 1 2 2 1 1 1 1 1 1 1 1 1 1 1 1 1 1 2 2 2 2 2
2 1 1 1 1 1 1 1 1 1 2 2 2 3 4 2 1 1 1 1 1 1 1 1 1 1 1 2 2 2 2 2 2 1 1 1 1 1 1 2 2 2 2
2 2 1 1 1 2 1 1 1 1 2 2 2 2 2 1 1 2 2 1 1 1 1 1 1 1 1 1 2 2 2 2 2 2 2 2 2 1 1 2 2 2 2
2 2 1 1 1 1 1 1 1 1 2 2 2 2 2 2 2 2 2 1 1 1 1 1 1 2 2 1 1 1 2 2 2 2 3 2 2 2 1 2 2 2 2
2 2 2 1 1 1 1 1 1 1 2 2 2 1 1 1 1 2 2 2 2 1 2 2 1 1 2 2 2 2 2 3 3 2 2 2 2 2 2 2 2 2 1
2 2 2 1 1 1 1 1 1 1 1 2 1 1 1 1 1 1 1 1 1 2 2 2 2 2 2 2 2 2 3 3 2 2 1 1 2 1 1 1 1 1 1
Wind_Direction
187 175 168 187 179 176 196 221 221 223 229 226 232 238 236 236 231 220 224 223 229 243 244 237 242 242 238 230 224 225 226 223 251 275 264 282 282 291 307 308 300 298 302
197 167 177 186 183 202 233 245 228 226 238 238 234 236 239 242 240 232 235 234 227 236 243 242 245 244 244 233 226 232 234 230 235 265 281 283 277 278 289 300 307 306 298
174 160 170 205 212 234 247 253 245 237 246 244 231 232 238 240 242 240 235 235 234 235 237 241 245 238 248 244 234 235 236 242 233 247 275 279 279 280 294 303 299 293 298
170 171 210 236 235 244 251 251 249 240 245 243 239 238 238 240 239 242 236 236 239 239 238 238 237 233 237 238 237 232 227 231 233 241 262 276 279 281 280 298 309 310 305
185 215 246 254 256 258 264 261 257 247 249 247 246 246 248 244 241 239 231 233 233 238 240 239 238 241 245 246 243 231 219 223 231 243 255 272 272 274 272 277 295 308 298
238 260 270 267 265 262 267 268 268 261 261 255 252 248 251 255 265 264 253 233 232 232 239 242 242 245 248 259 260 253 237 227 228 233 254 254 261 260 261 269 285 302 297
261 278 271 260 266 272 275 274 269 264 259 256 259 254 252 260 272 272 265 253 234 231 230 235 249 251 253 244 254 261 259 252 241 233 238 244 249 244 241 255 261 271 275
274 278 277 271 270 273 271 273 271 258 255 255 260 258 260 269 278 278 276 260 241 235 232 231 238 248 245 242 235 240 242 245 245 239 233 241 247 237 229 240 250 276 279
278 276 273 273 269 264 267 269 265 254 256 257 259 254 256 271 280 279 273 246 242 247 243 237 238 243 253 253 236 239 253 259 262 259 256 260 267 269 261 245 246 265 285
276 279 281 273 265 263 264 264 262 249 253 256 260 253 251 261 275 276 270 239 238 246 248 246 250 251 254 253 227 221 243 257 261 281 284 280 270 262 264 237 223 243 273
283 286 289 283 271 267 273 267 261 257 257 255 260 261 255 260 272 273 270 244 228 237 248 247 248 259 265 264 254 231 242 258 235 229 255 270 276 269 278 262 233 232 249
292 293 292 287 280 280 269 274 263 250 253 259 264 271 261 262 270 272 274 268 262 238 244 245 246 260 267 268 264 255 259 270 187 210 241 269 276 282 289 289 277 267 257
298 295 297 295 287 281 263 265 261 243 246 260 258 266 273 265 261 272 275 278 276 259 247 260 270 273 270 261 260 255 240 183 189 225 248 268 272 276 291 307 313 306 306
287 296 296 294 292 287 271 258 249 244 243 250 257 261 268 271 257 247 244 253 264 263 255 265 289 295 302 294 269 251 222 203 208 228 252 261 281 282 285 294 299 310 313
283 290 294 289 286 286 277 265 257 247 247 246 247 249 254 260 265 266 259 239 230 230 229 193 116 64 241 260 265 259 215 195 212 222 234 259 280 289 292 295 293 298 294
276 286 286 288 288 289 294 307 298 281 284 270 265 264 266 270 279 274 273 273 275 269 211 186 208 231 239 241 251 277 256 232 239 237 237 245 272 280 294 303 300 292 295
255 268 275 276 283 288 291 301 314 324 321 311 295 287 284 288 285 278 276 273 265 236 195 208 222 237 245 241 235 249 260 264 257 239 245 252 266 274 276 283 294 299 300
254 262 264 260 266 271 275 283 290 305 319 321 323 316 305 303 302 292 281 275 251 206 209 231 236 233 235 232 234 247 257 270 253 244 247 249 255 262 267 274 281 288 294
249 257 254 255 260 264 272 282 287 294 299 307 317 319 323 313 319 326 301 209 219 236 246 244 239 231 229 233 237 240 237 239 249 248 255 257 260 263 271 279 284 287 294
251 254 260 256 259 268 268 275 282 287 293 299 303 305 320 337 347 342 328 254 238 246 252 256 254 243 232 233 236 224 223 235 244 248 253 257 260 262 269 276 278 281 286
258 257 263 271 256 254 258 264 272 277 284 292 296 306 314 306 304 314 306 279 257 252 253 252 246 236 237 237 230 223 224 230 235 242 255 263 261 266 277 277 277 282 287
241 237 232 237 250 256 266 269 274 277 283 291 303 315 324 328 319 309 304 298 287 272 257 243 240 235 230 231 230 226 224 230 236 235 241 254 260 262 269 275 285 291 287
227 232 238 241 237 259 278 279 285 293 296 296 301 311 319 324 320 312 306 300 302 295 289 263 254 263 254 238 229 225 226 230 235 233 234 241 247 251 253 263 270 277 275
214 220 228 242 238 233 248 268 277 283 291 297 300 304 308 312 311 311 312 309 304 303 303 296 280 273 277 276 252 233 231 237 236 229 227 229 235 240 249 256 264 271 273
207 218 225 233 238 237 241 257 272 280 285 286 286 290 299 304 301 307 318 323 319 310 312 312 302 284 277 284 277 261 258 265 266 248 226 219 218 229 242 256 266 269 279
215 221 224 221 223 226 230 246 267 276 280 284 288 295 302 304 303 311 320 323 326 328 326 322 318 314 308 297 284 280 280 274 263 266 245 198 198 220 235 251 264 266 266